Regional Weather Roundup
Issued by NWS

Home | Current Version | Previous Version | Text Only | Print | Product List | Glossary Off
Versions: 1 2 3 4 5 6 7 8 9 10 11 12 13 14 15 16 17 18 19 20 21 22 23 24 25 26 27 28 29 30 31 32 33 34 35 36 37 38 39 40 41 42 43 44 45 46 47 48 49 50

000
ASUS43 KBIS 270410
RWRND

NORTH DAKOTA REGIONAL WEATHER ROUNDUP
NATIONAL WEATHER SERVICE BISMARCK ND
1000 PM CST FRI DEC 26 2014

NOTE: "FAIR" INDICATES FEW OR NO CLOUDS BELOW 12,000 FEET WITH NO
SIGNIFICANT WEATHER AND/OR OBSTRUCTIONS TO VISIBILITY.


NDZ001>003-009>011-017-270500-
NORTHWEST NORTH DAKOTA

CITY           SKY/WX    TMP DP  RH WIND       PRES   REMARKS
WILLISTON      CLOUDY    21  15  78 CALM      30.10F
MINOT          CLOUDY    10   4  76 SE5       30.13F WCI   2
MINOT AFB      CLOUDY     9   6  88 SE7       30.13F WCI  -2
$$

NDZ018>021-031>035-040>046-270500-
SOUTHWEST NORTH DAKOTA

CITY           SKY/WX    TMP DP  RH WIND       PRES   REMARKS
BISMARCK       CLEAR      2  -1  88 CALM      30.19F
DICKINSON      CLEAR     10   5  80 S6        30.08F WCI   0
GARRISON         N/A     10   7  87 CALM      30.13F
HETTINGER ARPT CLEAR      6   3  87 CALM      30.13S
$$

NDZ004>008-012>016-024-026-027-054-270500-
NORTHEAST NORTH DAKOTA

CITY           SKY/WX    TMP DP  RH WIND       PRES   REMARKS
GRAND FORKS    CLOUDY     7   3  84 N9        30.23F WCI  -7
GRND FRKS AFB  CLOUDY     2   1  94 NW6       30.24F WCI  -9
DEVILS LAKE    PTCLDY     0  -8  71 CALM      30.16F
$$

NDZ022-023-025-028>030-036>039-047>053-270500-
SOUTHEAST NORTH DAKOTA

CITY           SKY/WX    TMP DP  RH WIND       PRES   REMARKS
FARGO          MOCLDY    10   4  76 NW9       30.23F WCI  -3
JAMESTOWN      PTCLDY     3   0  87 CALM      30.18S
$$



USA.gov is the U.S. government's official web portal to all federal, state and local government web resources and services.